This is the latest recevied weather packets stored in our database for station/object KC5TIL-3. If no packets are shown the sender has not sent any weather packets the latest 1 day(s).
| Time | Temp. | Humidity | Pressure | Rain* | Wind** | Luminosity | Snow |
|---|---|---|---|---|---|---|---|
| 1778091832 | 13.33° C | 55% | 1012.8 hPa | 0 mm | 1.79 m/s, 25° | - | - |
| 1778090338 | 13.33° C | 59% | 1011.8 hPa | 0 mm | 4.92 m/s, 28° | - | - |
| 1778087330 | 12.78° C | 67% | 1011.8 hPa | 1.02 mm | 4.47 m/s, 34° | - | - |
| 1778086433 | 13.33° C | 72% | 1011.8 hPa | 1.02 mm | 2.68 m/s, 229° | - | - |
| 1778086134 | 13.33° C | 72% | 1011.8 hPa | 1.02 mm | 3.13 m/s, 2° | - | - |
| 1778085836 | 13.33° C | 72% | 1011.8 hPa | 0 mm | 3.13 m/s, 9° | - | - |
| 1778084938 | 13.33° C | 72% | 1012.8 hPa | 0 mm | 3.13 m/s, 29° | - | - |
| 1778084637 | 13.33° C | 71% | 1012.8 hPa | 0 mm | 4.02 m/s, 39° | - | - |
| 1778084334 | 13.33° C | 73% | 1012.8 hPa | 0 mm | 2.24 m/s, 315° | - | - |
| 1778083138 | 13.33° C | 76% | 1011.8 hPa | 0 mm | 3.13 m/s, 35° | - | - |
| 1778081939 | 13.89° C | 80% | 1011.8 hPa | 0 mm | 2.68 m/s, 333° | - | - |
| 1778081641 | 13.89° C | 80% | 1011.8 hPa | 0 mm | 4.92 m/s, 356° | - | - |
| 1778080739 | 13.33° C | 79% | 1012.8 hPa | 0 mm | 3.13 m/s, 21° | - | - |
| 1778080436 | 13.33° C | 78% | 1012.8 hPa | 0 mm | 3.13 m/s, 351° | - | - |
| 1778080135 | 12.78° C | 76% | 1012.8 hPa | 0 mm | 2.68 m/s, 271° | - | - |
| 1778079837 | 12.78° C | 75% | 1011.8 hPa | 0 mm | 1.34 m/s, 289° | - | - |
| 1778079514 | 12.78° C | 73% | 1011.8 hPa | 0 mm | 2.68 m/s, 289° | - | - |
| 1778079213 | 12.22° C | 71% | 1011.8 hPa | 0 mm | 4.02 m/s, 32° | - | - |
| 1778076520 | 12.22° C | 63% | 1011.8 hPa | 0 mm | 4.02 m/s, 16° | - | - |
| 1778076222 | 12.22° C | 62% | 1012.8 hPa | 0 mm | 4.47 m/s, 7° | - | - |
| 1778074124 | 12.22° C | 61% | 1011.8 hPa | 0 mm | 3.13 m/s, 2° | - | - |
| 1778073823 | 11.67° C | 60% | 1011.8 hPa | 0 mm | 5.36 m/s, 39° | - | - |
| 1778073525 | 12.22° C | 59% | 1011.8 hPa | 0 mm | 3.13 m/s, 10° | - | - |
| 1778073222 | 12.22° C | 59% | 1011.8 hPa | 0 mm | 5.36 m/s, 10° | - | - |
| 1778071422 | 12.78° C | 50% | 1010.8 hPa | 0 mm | 4.92 m/s, 5° | - | - |
* Rain latest hour (hover to see other rain measurements)
** Current wind speed in m/s (hover to see current wind gust speed)